User: anonymous   Login
Location: Hungerford
(51.4167°N, 1.5167°W)
Time: 05:41:52
(UTC+00:00)
Language:

Cosmos 1833 Rocket - Orbit

View from above orbital plane
View from above orbital plane
View from above satellite
View from above satellite

Ground track
Ground track

The orbit data is extracted from the following two-line orbital elements,

1 17590U 87027B   20333.55889173 -.00000207 +00000-0 -79638-4 0  9991
2 17590 071.0042 015.8118 0005660 207.3928 152.6898 14.16792783742404
Epoch (UTC): 28 November 2020 13:24:48
Eccentricity: 0.0005660
inclination: 71.0042°
perigee height: 832 km
apogee height: 840 km
right ascension of ascending node: 15.8118°
argument of perigee: 207.3928°
revolutions per day: 14.16792783
mean anomaly at epoch: 152.6898°
orbit number at epoch: 74240

The dashed part of the orbit path shows where the satellite is in the earth's shadow,  

DLR